Tracking 18987 objects as of 24-Feb-2018
HD Live streaming from Space Station
objects crossing your sky now

BREEZE-M DEB

Track BREEZE-M DEB now!
10-day predictions


NORAD ID: 34259
Int'l Code: 2006-006CA
Perigee: 1,110.1 km
Apogee: 14,730.1 km
Inclination: 50.8 °
Period: 283.4 minutes
Semi major axis: 14291 km
RCS: 0.2413 m2 (medium)
Launch date: February 28, 2006
Source: Commonwealth of Independent States (former USSR) (CIS)
Launch site: TYURATAM MISSILE AND SPACE COMPLEX (TTMTR)

Note: This is SATELLITE DEBRIS
aabbcc
Your satellite tracking list
Your tracking list is empty




NASA's NSSDC Master Catalog

Two Line Element Set (TLE):
1 34259U 06006CA  18055.36066678  .00000008  00000-0  00000+0 0  9993
2 34259  50.8297 199.0441 4765193  35.8378 348.3203  5.08165195223339
Source of the keplerian elements: AFSPC